Location: Crescent
(42.8242°N, 73.7329°W)
Time: 06:48:31
(UTC+00:00)

Tiros 1 - Pass Details

Date: 18 February 2026
Orbit: 618 x 649 km, 48.4° (Epoch: 9 March)

Event Time Altitude Azimuth Distance (km) Brightness Sun altitude
Rises 14:53:19 0° 264° (W) 2,906 10.2 27.5°
Reaches altitude 10° 14:55:42 10° 269° (W) 1,995 9.4 27.7°
Maximum altitude 15:00:10 50° 346° (NNW) 790 7.6 28.2°
Drops below altitude 10° 15:04:36 10° 62° (ENE) 1,985 9.8 28.7°
Sets 15:06:58 0° 68° (ENE) 2,890 10.6 29.0°
